When you browse on this site, cookies collect data to enhance your experience and personalize the content and advertising you see.
Visit our Privacy Policy to learn more. By continuing to use the site, you agree to this use of cookies and data.

Meteo pe oră la Dziemiony

Astăzi, 21 Septembrie, Luni

Timp Temperatura Precipitaţii Vânt Presiune Umiditate
00:00 +12°C° 0 mm 1 m/s 756 mmHg 67%
01:00 +11°C° 0 mm 1 m/s 756 mmHg 68%
02:00 +11°C° 0 mm 1 m/s 756 mmHg 68%
03:00 +10°C° 0 mm 1 m/s 756 mmHg 68%
04:00 +10°C° 0 mm 1 m/s 756 mmHg 69%
05:00 +11°C° 0 mm 1 m/s 756 mmHg 67%
06:00 +11°C° 0 mm 1 m/s 756 mmHg 66%
07:00 +12°C° 0 mm 2 m/s 756 mmHg 61%
08:00 +14°C° 0 mm 2 m/s 756 mmHg 56%
09:00 +16°C° 0 mm 2 m/s 756 mmHg 51%
10:00 +18°C° 0 mm 2 m/s 756 mmHg 47%
11:00 +20°C° 0 mm 2 m/s 756 mmHg 45%
12:00 +21°C° 0 mm 2 m/s 756 mmHg 43%
13:00 +23°C° 0 mm 2 m/s 756 mmHg 41%
14:00 +23°C° 0 mm 2 m/s 755 mmHg 42%
15:00 +23°C° 0 mm 2 m/s 755 mmHg 42%
16:00 +23°C° 0 mm 2 m/s 754 mmHg 43%
17:00 +21°C° 0 mm 1 m/s 754 mmHg 48%
18:00 +19°C° 0 mm 1 m/s 754 mmHg 54%
19:00 +16°C° 0 mm 1 m/s 754 mmHg 60%
20:00 +16°C° 0 mm 1 m/s 754 mmHg 61%
21:00 +15°C° 0 mm 1 m/s 754 mmHg 63%
22:00 +15°C° 0 mm 1 m/s 754 mmHg 65%
23:00 +14°C° 0 mm 1 m/s 754 mmHg 67%

Mâine, 22 Septembrie, Marţi

Timp Temperatura Precipitaţii Vânt Presiune Umiditate
00:00 +14°C° 0 mm 1 m/s 754 mmHg 68%
01:00 +14°C° 0 mm 1 m/s 753 mmHg 70%
02:00 +14°C° 0 mm 2 m/s 753 mmHg 70%
03:00 +13°C° 0 mm 2 m/s 753 mmHg 70%
04:00 +13°C° 0 mm 2 m/s 753 mmHg 71%
05:00 +14°C° 0 mm 2 m/s 753 mmHg 70%
06:00 +14°C° 0 mm 2 m/s 753 mmHg 68%
07:00 +15°C° 0 mm 2 m/s 753 mmHg 67%
08:00 +17°C° 0 mm 3 m/s 752 mmHg 61%
09:00 +20°C° 0 mm 3 m/s 752 mmHg 54%
10:00 +22°C° 0 mm 3 m/s 752 mmHg 47%
11:00 +23°C° 0 mm 4 m/s 752 mmHg 44%
12:00 +26°C° 0 mm 4 m/s 751 mmHg 40%
13:00 +27°C° 0 mm 5 m/s 751 mmHg 36%
14:00 +27°C° 0 mm 4 m/s 750 mmHg 38%
15:00 +27°C° 0 mm 4 m/s 750 mmHg 39%
16:00 +26°C° 0 mm 4 m/s 750 mmHg 41%
17:00 +25°C° 0 mm 3 m/s 749 mmHg 45%
18:00 +22°C° 0 mm 3 m/s 749 mmHg 49%
19:00 +20°C° 0 mm 3 m/s 749 mmHg 53%
20:00 +19°C° 0 mm 3 m/s 749 mmHg 56%
21:00 +19°C° 0 mm 3 m/s 749 mmHg 58%
22:00 +18°C° 0 mm 3 m/s 748 mmHg 60%
23:00 +18°C° 0 mm 3 m/s 748 mmHg 62%

Poimâine, 23 Septembrie, Miercuri

Timp Temperatura Precipitaţii Vânt Presiune Umiditate
00:00 +17°C° 0 mm 3 m/s 748 mmHg 63%
01:00 +17°C° 0 mm 3 m/s 748 mmHg 65%
02:00 +16°C° 0 mm 3 m/s 748 mmHg 67%
03:00 +16°C° 0 mm 3 m/s 747 mmHg 68%
04:00 +16°C° 0 mm 3 m/s 747 mmHg 69%
05:00 +16°C° 0 mm 3 m/s 747 mmHg 67%
06:00 +16°C° 0 mm 3 m/s 747 mmHg 66%
07:00 +17°C° 0 mm 3 m/s 747 mmHg 64%
08:00 +19°C° 0 mm 3 m/s 747 mmHg 57%
09:00 +21°C° 0 mm 3 m/s 747 mmHg 51%
10:00 +23°C° 0 mm 4 m/s 747 mmHg 44%
11:00 +25°C° 0 mm 4 m/s 746 mmHg 42%
12:00 +26°C° 0 mm 4 m/s 746 mmHg 41%
13:00 +27°C° 0 mm 4 m/s 746 mmHg 39%
14:00 +27°C° 0 mm 4 m/s 746 mmHg 42%
15:00 +27°C° 0 mm 3 m/s 746 mmHg 45%
16:00 +27°C° 0 mm 3 m/s 745 mmHg 47%
17:00 +25°C° 0 mm 3 m/s 745 mmHg 54%
18:00 +23°C° 0 mm 2 m/s 745 mmHg 60%
19:00 +21°C° 0 mm 2 m/s 745 mmHg 66%
20:00 +20°C° 0 mm 2 m/s 745 mmHg 68%
21:00 +19°C° 0 mm 2 m/s 745 mmHg 70%
22:00 +20°C° 0 mm 1 m/s 745 mmHg 72%
23:00 +18°C° 0 mm 2 m/s 745 mmHg 74%

24 Septembrie, Joi

Timp Temperatura Precipitaţii Vânt Presiune Umiditate
00:00 +18°C° 0 mm 2 m/s 745 mmHg 76%
01:00 +18°C° 0 mm 2 m/s 745 mmHg 77%
02:00 +17°C° 0 mm 2 m/s 745 mmHg 79%
03:00 +17°C° 0 mm 2 m/s 745 mmHg 81%
04:00 +17°C° 0 mm 2 m/s 745 mmHg 83%
05:00 +17°C° 0 mm 2 m/s 746 mmHg 82%
06:00 +17°C° 0 mm 2 m/s 746 mmHg 80%
07:00 +18°C° 0 mm 2 m/s 746 mmHg 79%
08:00 +19°C° 0 mm 2 m/s 746 mmHg 68%
09:00 +21°C° 0 mm 3 m/s 746 mmHg 57%
10:00 +24°C° 0 mm 3 m/s 746 mmHg 46%
11:00 +25°C° 0 mm 4 m/s 746 mmHg 44%
12:00 +26°C° 0 mm 4 m/s 746 mmHg 42%
13:00 +26°C° 0 mm 4 m/s 746 mmHg 40%
14:00 +26°C° 0 mm 4 m/s 746 mmHg 44%
15:00 +25°C° 0 mm 4 m/s 746 mmHg 47%
16:00 +25°C° 0 mm 3 m/s 746 mmHg 51%
17:00 +24°C° 0 mm 3 m/s 746 mmHg 57%
18:00 +21°C° 0 mm 3 m/s 747 mmHg 62%
19:00 +20°C° 0 mm 2 m/s 747 mmHg 68%
20:00 +19°C° 0.1 mm 2 m/s 747 mmHg 70%
21:00 +18°C° 0.1 mm 2 m/s 747 mmHg 73%
22:00 +18°C° 0.1 mm 2 m/s 747 mmHg 75%
23:00 +18°C° 0 mm 2 m/s 747 mmHg 77%

25 Septembrie, Vineri

Timp Temperatura Precipitaţii Vânt Presiune Umiditate
00:00 +17°C° 0 mm 2 m/s 747 mmHg 78%
01:00 +17°C° 0 mm 2 m/s 747 mmHg 79%
02:00 +16°C° 0 mm 2 m/s 746 mmHg 82%
03:00 +16°C° 0 mm 2 m/s 746 mmHg 84%
04:00 +16°C° 0 mm 3 m/s 746 mmHg 86%
05:00 +16°C° 0 mm 3 m/s 745 mmHg 83%
06:00 +17°C° 0 mm 3 m/s 745 mmHg 81%
07:00 +17°C° 0 mm 4 m/s 745 mmHg 78%
08:00 +19°C° 0 mm 4 m/s 744 mmHg 71%
09:00 +21°C° 0 mm 5 m/s 744 mmHg 64%
10:00 +23°C° 0 mm 6 m/s 743 mmHg 56%
11:00 +24°C° 0 mm 6 m/s 742 mmHg 54%
12:00 +26°C° 0 mm 6 m/s 742 mmHg 52%
13:00 +26°C° 0 mm 7 m/s 741 mmHg 49%
14:00 +26°C° 0 mm 6 m/s 740 mmHg 52%
15:00 +25°C° 0 mm 5 m/s 740 mmHg 54%
16:00 +23°C° 0 mm 5 m/s 739 mmHg 57%
17:00 +22°C° 0.1 mm 5 m/s 739 mmHg 60%
18:00 +22°C° 0.1 mm 5 m/s 738 mmHg 63%
19:00 +21°C° 0.1 mm 6 m/s 738 mmHg 67%
20:00 +21°C° 0.1 mm 6 m/s 738 mmHg 68%
21:00 +20°C° 0.1 mm 7 m/s 738 mmHg 69%
22:00 +20°C° 0.1 mm 7 m/s 738 mmHg 70%
23:00 +18°C° 0.4 mm 7 m/s 738 mmHg 75%

26 Septembrie, Sâmbătă

Timp Temperatura Precipitaţii Vânt Presiune Umiditate
00:00 +17°C° 0.4 mm 7 m/s 738 mmHg 80%
01:00 +16°C° 0.4 mm 7 m/s 739 mmHg 86%
02:00 +15°C° 0.4 mm 6 m/s 739 mmHg 85%
03:00 +14°C° 0.4 mm 6 m/s 740 mmHg 83%
04:00 +13°C° 0.4 mm 5 m/s 740 mmHg 82%
05:00 +13°C° 0.1 mm 5 m/s 741 mmHg 82%
06:00 +13°C° 0.1 mm 4 m/s 742 mmHg 82%
07:00 +13°C° 0.1 mm 4 m/s 743 mmHg 82%
08:00 +13°C° 0 mm 3 m/s 743 mmHg 79%
09:00 +13°C° 0 mm 3 m/s 744 mmHg 76%
10:00 +15°C° 0 mm 2 m/s 745 mmHg 73%
11:00 +16°C° 0 mm 2 m/s 745 mmHg 65%
12:00 +18°C° 0 mm 1 m/s 746 mmHg 58%
13:00 +19°C° 0 mm 1 m/s 746 mmHg 50%
14:00 +19°C° 0 mm 1 m/s 746 mmHg 50%
15:00 +19°C° 0 mm 1 m/s 746 mmHg 49%
16:00 +19°C° 0 mm 1 m/s 746 mmHg 48%
17:00 +18°C° 0 mm 1 m/s 746 mmHg 53%
18:00 +16°C° 0 mm 2 m/s 746 mmHg 57%
19:00 +15°C° 0 mm 2 m/s 746 mmHg 61%
20:00 +14°C° 0.1 mm 3 m/s 745 mmHg 66%
21:00 +14°C° 0.1 mm 4 m/s 745 mmHg 70%
22:00 +13°C° 0.1 mm 4 m/s 745 mmHg 75%
23:00 +13°C° 2.6 mm 5 m/s 744 mmHg 80%
Arată mai mult